Time,TemperatureF,DewpointF,PressureIn,WindDirection,WindDirectionDegrees,WindSpeedMPH,WindSpeedGustMPH,Humidity,HourlyPrecipIn,Conditions,Clouds,dailyrainin,SoftwareType,DateUTC
2013-10-20 00:23:00,38.0,36.0,30.04,South,188,0.0,-999.0,92,-99.99,,,-99.99,,2013-10-20 05:23:00,
2013-10-20 00:43:00,38.0,36.0,30.03,South,188,0.0,-999.0,92,-99.99,,,-99.99,,2013-10-20 05:43:00,
2013-10-20 00:52:00,38.0,36.0,30.04,South,188,0.0,-999.0,93,-99.99,,,-99.99,,2013-10-20 05:52:00,
2013-10-20 01:12:00,38.0,36.0,30.03,South,188,0.0,-999.0,93,-99.99,,,-99.99,,2013-10-20 06:12:00,
2013-10-20 01:22:00,38.0,36.0,30.03,South,188,0.0,-999.0,93,-99.99,,,-99.99,,2013-10-20 06:22:00,
2013-10-20 01:52:00,37.0,35.0,30.02,South,188,0.0,-999.0,93,-99.99,,,-99.99,,2013-10-20 06:52:00,
2013-10-20 02:12:00,36.0,34.0,30.02,South,188,0.0,-999.0,93,-99.99,,,-99.99,,2013-10-20 07:12:00,
2013-10-20 02:22:00,36.0,34.0,30.02,South,188,0.0,-999.0,93,-99.99,,,-99.99,,2013-10-20 07:22:00,
2013-10-20 02:42:00,36.0,34.0,30.01,South,188,0.0,-999.0,93,-99.99,,,-99.99,,2013-10-20 07:42:00,
2013-10-20 02:52:00,36.0,34.0,30.01,South,188,0.0,-999.0,93,-99.99,,,-99.99,,2013-10-20 07:52:00,
2013-10-20 03:11:00,36.0,34.0,30.01,South,188,0.0,-999.0,93,-99.99,,,-99.99,,2013-10-20 08:11:00,
2013-10-20 03:22:00,36.0,34.0,30.01,South,188,0.0,-999.0,93,-99.99,,,-99.99,,2013-10-20 08:22:00,
2013-10-20 03:42:00,35.0,33.0,30.00,South,188,0.0,-999.0,93,-99.99,,,-99.99,,2013-10-20 08:42:00,
2013-10-20 03:52:00,35.0,33.0,30.00,South,188,0.0,-999.0,93,-99.99,,,-99.99,,2013-10-20 08:52:00,
2013-10-20 04:11:00,35.0,33.0,30.00,South,188,0.0,-999.0,93,-99.99,,,-99.99,,2013-10-20 09:11:00,
2013-10-20 04:21:00,36.0,34.0,30.00,South,188,0.0,-999.0,94,-99.99,,,-99.99,,2013-10-20 09:21:00,
2013-10-20 04:43:00,36.0,34.0,29.99,South,188,0.0,-999.0,94,-99.99,,,-99.99,,2013-10-20 09:43:00,
2013-10-20 04:53:00,35.0,33.0,29.99,South,188,0.0,-999.0,94,-99.99,,,-99.99,,2013-10-20 09:53:00,
2013-10-20 05:12:00,35.0,33.0,29.99,South,188,0.0,-999.0,94,-99.99,,,-99.99,,2013-10-20 10:12:00,
2013-10-20 05:23:00,36.0,34.0,29.99,South,188,0.0,-999.0,94,-99.99,,,-99.99,,2013-10-20 10:23:00,
2013-10-20 05:53:00,35.0,33.0,29.99,South,188,0.0,-999.0,94,-99.99,,,-99.99,,2013-10-20 10:53:00,
2013-10-20 06:12:00,35.0,33.0,30.00,South,188,0.0,-999.0,94,-99.99,,,-99.99,,2013-10-20 11:12:00,
2013-10-20 06:22:00,34.0,32.0,30.00,South,188,0.0,-999.0,94,-99.99,,,-99.99,,2013-10-20 11:22:00,
2013-10-20 06:42:00,34.0,32.0,30.00,South,188,0.0,-999.0,94,-99.99,,,-99.99,,2013-10-20 11:42:00,
2013-10-20 06:52:00,34.0,32.0,30.00,South,188,0.0,-999.0,94,-99.99,,,-99.99,,2013-10-20 11:52:00,
2013-10-20 07:11:00,34.0,32.0,29.99,South,188,0.0,-999.0,94,-99.99,,,-99.99,,2013-10-20 12:11:00,
2013-10-20 07:21:00,34.0,32.0,30.00,South,188,0.0,-999.0,94,-99.99,,,-99.99,,2013-10-20 12:21:00,
2013-10-20 07:42:00,35.0,33.0,30.01,South,188,0.0,-999.0,94,-99.99,,,-99.99,,2013-10-20 12:42:00,
2013-10-20 07:52:00,34.0,32.0,30.01,South,188,0.0,-999.0,94,-99.99,,,-99.99,,2013-10-20 12:52:00,
2013-10-20 08:11:00,34.0,32.0,30.01,South,188,0.0,-999.0,94,-99.99,,,-99.99,,2013-10-20 13:11:00,
2013-10-20 08:21:00,35.0,33.0,30.01,South,188,0.0,-999.0,94,-99.99,,,-99.99,,2013-10-20 13:21:00,
2013-10-20 08:42:00,35.0,34.0,30.02,South,188,0.0,-999.0,95,-99.99,,,-99.99,,2013-10-20 13:42:00,
2013-10-20 08:52:00,36.0,35.0,30.02,South,188,0.0,-999.0,95,-99.99,,,-99.99,,2013-10-20 13:52:00,
2013-10-20 09:12:00,37.0,36.0,30.03,South,188,0.0,-999.0,95,-99.99,,,-99.99,,2013-10-20 14:12:00,
2013-10-20 09:22:00,39.0,38.0,30.03,WSW,248,0.0,-999.0,95,-99.99,,,-99.99,,2013-10-20 14:22:00,
2013-10-20 09:42:00,41.0,40.0,30.04,NNW,346,0.0,-999.0,95,-99.99,,,-99.99,,2013-10-20 14:42:00,
2013-10-20 09:52:00,43.0,42.0,30.03,NNW,346,0.0,-999.0,96,-99.99,,,-99.99,,2013-10-20 14:52:00,
2013-10-20 10:11:00,43.0,41.0,30.03,NNW,346,0.0,-999.0,93,-99.99,,,-99.99,,2013-10-20 15:11:00,
2013-10-20 10:22:00,44.0,42.0,30.03,NNW,346,0.0,-999.0,93,-99.99,,,-99.99,,2013-10-20 15:22:00,
2013-10-20 10:44:00,46.0,44.0,30.03,NNW,346,0.0,-999.0,93,-99.99,,,-99.99,,2013-10-20 15:44:00,
2013-10-20 10:54:00,48.0,46.0,30.03,NNW,346,0.0,-999.0,92,-99.99,,,-99.99,,2013-10-20 15:54:00,
2013-10-20 11:14:00,51.0,47.0,30.02,NNW,346,0.0,-999.0,86,-99.99,,,-99.99,,2013-10-20 16:14:00,
2013-10-20 11:24:00,55.0,48.0,30.01,NNW,346,0.0,-999.0,77,-99.99,,,-99.99,,2013-10-20 16:24:00,
2013-10-20 11:43:00,58.0,47.0,30.01,NE,52,1.0,-999.0,67,-99.99,,,-99.99,,2013-10-20 16:43:00,
2013-10-20 11:53:00,60.0,43.0,30.01,SW,218,1.0,-999.0,54,-99.99,,,-99.99,,2013-10-20 16:53:00,
2013-10-20 12:12:00,61.0,45.0,30.01,West,259,1.0,-999.0,56,-99.99,,,-99.99,,2013-10-20 17:12:00,
2013-10-20 12:23:00,63.0,48.0,30.00,SW,219,0.0,-999.0,58,-99.99,,,-99.99,,2013-10-20 17:23:00,
2013-10-20 12:42:00,63.0,45.0,29.99,East,82,1.0,-999.0,52,-99.99,,,-99.99,,2013-10-20 17:42:00,
2013-10-20 12:52:00,64.0,44.0,29.99,WNW,302,1.0,-999.0,49,-99.99,,,-99.99,,2013-10-20 17:52:00,
2013-10-20 13:12:00,65.0,45.0,29.98,ESE,112,1.0,-999.0,48,-99.99,,,-99.99,,2013-10-20 18:12:00,
2013-10-20 13:22:00,66.0,45.0,29.97,NNW,331,1.0,-999.0,46,-99.99,,,-99.99,,2013-10-20 18:22:00,
2013-10-20 13:42:00,66.0,43.0,29.96,SSE,158,1.0,-999.0,44,-99.99,,,-99.99,,2013-10-20 18:42:00,
2013-10-20 13:52:00,67.0,44.0,29.95,East,83,1.0,-999.0,44,-99.99,,,-99.99,,2013-10-20 18:52:00,
2013-10-20 14:12:00,68.0,43.0,29.94,WSW,239,1.0,-999.0,41,-99.99,,,-99.99,,2013-10-20 19:12:00,
2013-10-20 14:22:00,68.0,43.0,29.94,ESE,123,1.0,-999.0,40,-99.99,,,-99.99,,2013-10-20 19:22:00,
2013-10-20 14:42:00,68.0,43.0,29.93,WSW,258,1.0,-999.0,41,-99.99,,,-99.99,,2013-10-20 19:42:00,
2013-10-20 14:52:00,68.0,43.0,29.92,WSW,243,1.0,-999.0,40,-99.99,,,-99.99,,2013-10-20 19:52:00,
2013-10-20 15:11:00,69.0,43.0,29.92,WNW,288,1.0,-999.0,39,-99.99,,,-99.99,,2013-10-20 20:11:00,
2013-10-20 15:22:00,69.0,42.0,29.91,ESE,113,2.0,-999.0,38,-99.99,,,-99.99,,2013-10-20 20:22:00,
2013-10-20 15:42:00,69.0,42.0,29.91,West,261,2.0,-999.0,38,-99.99,,,-99.99,,2013-10-20 20:42:00,
2013-10-20 15:52:00,69.0,44.0,29.91,NW,323,1.0,-999.0,41,-99.99,,,-99.99,,2013-10-20 20:52:00,
2013-10-20 16:11:00,69.0,42.0,29.91,South,175,0.0,-999.0,38,-99.99,,,-99.99,,2013-10-20 21:11:00,
2013-10-20 16:21:00,69.0,42.0,29.89,West,259,1.0,-999.0,38,-99.99,,,-99.99,,2013-10-20 21:21:00,
2013-10-20 16:43:00,69.0,44.0,29.89,WNW,286,0.0,-999.0,40,-99.99,,,-99.99,,2013-10-20 21:43:00,
2013-10-20 16:53:00,69.0,42.0,29.89,South,173,0.0,-999.0,38,-99.99,,,-99.99,,2013-10-20 21:53:00,
2013-10-20 17:13:00,69.0,43.0,29.89,West,270,1.0,-999.0,39,-99.99,,,-99.99,,2013-10-20 22:13:00,
2013-10-20 17:23:00,68.0,44.0,29.89,ENE,62,0.0,-999.0,42,-99.99,,,-99.99,,2013-10-20 22:23:00,
2013-10-20 17:43:00,68.0,44.0,29.89,SW,236,0.0,-999.0,42,-99.99,,,-99.99,,2013-10-20 22:43:00,
2013-10-20 17:53:00,68.0,47.0,29.89,WSW,251,0.0,-999.0,47,-99.99,,,-99.99,,2013-10-20 22:53:00,
2013-10-20 18:13:00,67.0,47.0,29.89,WSW,251,0.0,-999.0,48,-99.99,,,-99.99,,2013-10-20 23:13:00,
2013-10-20 18:22:00,65.0,46.0,29.89,South,188,0.0,-999.0,50,-99.99,,,-99.99,,2013-10-20 23:22:00,
2013-10-20 18:42:00,62.0,47.0,29.89,SE,146,0.0,-999.0,59,-99.99,,,-99.99,,2013-10-20 23:42:00,
2013-10-20 18:52:00,60.0,47.0,29.89,SE,146,0.0,-999.0,63,-99.99,,,-99.99,,2013-10-20 23:52:00,
2013-10-20 21:12:00,48.0,44.0,29.93,SE,146,0.0,-999.0,85,-99.99,,,-99.99,,2013-10-21 02:12:00,
2013-10-20 21:22:00,47.0,43.0,29.93,SE,146,0.0,-999.0,87,-99.99,,,-99.99,,2013-10-21 02:22:00,
2013-10-20 21:42:00,47.0,43.0,29.93,SE,146,0.0,-999.0,87,-99.99,,,-99.99,,2013-10-21 02:42:00,
2013-10-20 21:52:00,46.0,43.0,29.94,SE,146,0.0,-999.0,88,-99.99,,,-99.99,,2013-10-21 02:52:00,
2013-10-20 22:12:00,46.0,43.0,29.94,SE,146,0.0,-999.0,88,-99.99,,,-99.99,,2013-10-21 03:12:00,
2013-10-20 22:22:00,45.0,42.0,29.94,SE,146,0.0,-999.0,89,-99.99,,,-99.99,,2013-10-21 03:22:00,
2013-10-20 22:45:00,45.0,42.0,29.94,SE,146,0.0,-999.0,90,-99.99,,,-99.99,,2013-10-21 03:45:00,
2013-10-20 22:54:00,45.0,42.0,29.95,SE,146,0.0,-999.0,90,-99.99,,,-99.99,,2013-10-21 03:54:00,
2013-10-20 23:13:00,44.0,42.0,29.95,SE,146,0.0,-999.0,91,-99.99,,,-99.99,,2013-10-21 04:13:00,
2013-10-20 23:24:00,44.0,42.0,29.95,SE,146,0.0,-999.0,91,-99.99,,,-99.99,,2013-10-21 04:24:00,
2013-10-20 23:44:00,44.0,42.0,29.95,SE,146,0.0,-999.0,91,-99.99,,,-99.99,,2013-10-21 04:44:00,
2013-10-20 23:53:00,45.0,43.0,29.95,SE,146,0.0,-999.0,92,-99.99,,,-99.99,,2013-10-21 04:53:00,